Location: Poughquag
(41.6090°N, 73.6820°W)
Time: 03:05:36
(UTC-04:00)

Transit 2A Rocket - Pass Details

Date: 03 June 2020
Orbit: 584 x 919 km, 66.7° (Epoch: 06 July)

Event Time Altitude Azimuth Distance (km) Brightness Sun altitude
Rises 22:40:44 0° 225° (SW) 3,057 8.0 -19.0°
Reaches altitude 10° 22:43:02 10° 230° (SW) 2,194 7.3 -19.2°
Maximum altitude 22:47:54 50° 306° (NW) 979 5.9 -19.7°
Drops below altitude 10° 22:53:19 10° 21° (NNE) 2,428 8.1 -20.2°
Sets 22:55:58 0° 27° (NNE) 3,415 8.8 -20.4°
